"startDT [UTC]","vpos","CH4 [ppm]","stdev(CH4) [ppm]","CO2 [ppm]","stdev(CO2) [ppm]","H2O_reported [%]","stdev(H2O_reported)","CavityPressure [torr]","CavityTemp [C]","OutletValve","CH4_dry [ppm]","CO2_dry [ppm]","DasTemp [C]","EtalonTemp [C]","WarmBoxTemp [C]","MPVPosition","T_ECpre [C]","T_EC1 [C]","T_EC2 [C]","p_inlet [hPa]","p_in [hPa]","p_out [hPa]","T_inlet [C]","RH_inlet [%]","dwpt_inlet [C]","T_vent [C]","RH_vent [%]","dwpt_vent [C]","flow_vent [l min-1]","flow_inlet [l min-1]","dwpt_sample [C]","T_room [C]"
2015-01-03 00:00:00,0.0,1.94603,0.00041,405.285,0.027,0.0340,0.0013,139.997,45.000,28560.86712,1.94667,405.451,33.750,45.067,45.000,0.00,0.09,-272.67,-272.74,-10,130,-2,20.2,1.2,-36.1,20.7,3.3,-25.0,5.73,2.48,-20.1,26.7
2015-01-03 00:01:00,0.0,1.94567,0.00035,405.286,0.026,0.0342,0.0016,139.999,45.000,28560.40789,1.94635,405.453,33.749,45.067,45.000,0.00,0.09,-272.68,-272.74,-10,129,-2,20.2,1.2,-36.0,20.7,3.3,-25.0,5.73,2.47,-20.2,26.7
2015-01-03 00:02:00,0.0,1.94584,0.00035,405.273,0.028,0.0341,0.0016,140.001,45.000,28564.87828,1.94646,405.440,33.742,45.067,45.000,0.00,0.09,-272.68,-272.74,-10,130,-2,20.2,1.2,-36.1,20.7,3.3,-25.0,5.73,2.47,-20.2,26.7
2015-01-03 00:03:00,0.0,1.94574,0.00026,405.260,0.036,0.0337,0.0021,139.999,45.000,28563.06365,1.94641,405.424,33.732,45.067,45.000,0.00,0.09,-272.68,-272.75,-10,130,-2,20.2,1.2,-36.1,20.7,3.3,-25.0,5.73,2.48,-20.2,26.7
2015-01-03 00:04:00,0.0,1.94558,0.00029,405.268,0.032,0.0338,0.0015,140.000,45.000,28563.92082,1.94621,405.432,33.718,45.067,45.000,0.00,0.09,-272.68,-272.74,-10,130,-2,20.2,1.2,-36.1,20.7,3.3,-25.0,5.73,2.49,-20.2,26.6
2015-01-03 00:05:00,0.0,1.94545,0.00042,405.246,0.037,0.0337,0.0016,139.999,45.000,28562.69712,1.94610,405.410,33.696,45.067,45.000,0.00,0.09,-272.68,-272.75,-10,130,-2,20.1,1.2,-36.1,20.7,3.3,-25.0,5.73,2.47,-20.2,26.6
2015-01-03 00:06:00,0.0,1.94580,0.00033,405.248,0.033,0.0339,0.0018,139.997,45.000,28559.80006,1.94645,405.413,33.703,45.067,45.000,0.00,0.09,-272.69,-272.75,-10,130,-2,20.1,1.2,-36.1,20.7,3.3,-25.0,5.73,2.47,-20.2,26.6
2015-01-03 00:07:00,0.0,1.94584,0.00039,405.243,0.030,0.0335,0.0022,140.001,45.000,28561.81205,1.94649,405.407,33.715,45.067,45.000,0.00,0.09,-272.69,-272.73,-10,129,-2,20.1,1.2,-36.3,20.6,3.3,-25.0,5.73,2.47,-20.2,26.6
2015-01-03 00:08:00,0.0,1.94599,0.00037,405.246,0.039,0.0329,0.0017,139.998,45.000,28559.13113,1.94659,405.404,33.713,45.067,45.000,0.00,0.09,-272.68,-272.73,-10,129,-2,20.1,1.1,-36.6,20.7,3.3,-25.0,5.73,2.48,-20.2,26.7
2015-01-03 00:09:00,0.0,1.94600,0.00043,405.263,0.035,0.0311,0.0021,140.002,45.000,28559.57787,1.94662,405.415,33.717,45.067,45.000,0.00,0.09,-272.69,-272.75,-10,130,-2,20.1,1.1,-36.9,20.6,3.3,-25.0,5.73,2.47,-20.2,26.7
2015-01-03 00:10:00,0.0,1.94608,0.00058,405.258,0.034,0.0318,0.0019,140.000,45.000,28559.24584,1.94670,405.413,33.727,45.067,45.000,0.00,0.09,-272.69,-272.74,-10,130,-2,20.1,1.1,-36.9,20.6,3.3,-25.0,5.73,2.47,-20.2,26.6
2015-01-03 00:11:00,0.0,1.94579,0.00038,405.266,0.027,0.0323,0.0022,140.001,45.000,28557.82008,1.94637,405.424,33.743,45.067,45.000,0.00,0.09,-272.68,-272.74,-10,130,-2,20.1,1.1,-36.6,20.6,3.3,-25.0,5.73,2.47,-20.2,26.6
2015-01-03 00:12:00,0.0,1.94570,0.00052,405.255,0.025,0.0328,0.0020,140.000,45.000,28558.15918,1.94635,405.414,33.747,45.067,45.000,0.00,0.09,-272.68,-272.74,-10,129,-2,20.1,1.1,-36.6,20.6,3.3,-25.0,5.73,2.46,-20.2,26.6
2015-01-03 00:13:00,0.0,1.94589,0.00042,405.250,0.025,0.0330,0.0018,140.001,45.000,28559.12005,1.94654,405.410,33.741,45.067,45.000,0.00,0.09,-272.69,-272.74,-10,130,-2,20.1,1.1,-36.5,20.6,3.3,-25.0,5.73,2.46,-20.2,26.6
2015-01-03 00:14:00,0.0,1.94593,0.00039,405.281,0.029,0.0323,0.0018,139.997,45.000,28560.95879,1.94653,405.439,33.728,45.067,45.000,0.00,0.09,-272.68,-272.74,-10,130,-2,20.1,1.1,-36.6,20.6,3.3,-25.0,5.73,2.43,-20.2,26.6
2015-01-03 00:15:00,0.0,1.94653,0.00029,405.268,0.028,0.0318,0.0018,140.000,45.000,28565.69930,1.94713,405.423,33.715,45.067,45.000,0.00,0.09,-272.68,-272.74,-10,130,-2,20.1,1.1,-36.8,20.6,3.3,-25.0,5.73,2.40,-20.2,26.6
2015-01-03 00:16:00,0.0,1.94620,0.00041,405.271,0.025,0.0313,0.0015,140.002,45.000,28566.85942,1.94681,405.423,33.723,45.067,45.000,0.00,0.09,-272.69,-272.75,-10,130,-2,20.1,1.1,-37.1,20.6,3.3,-25.0,5.73,2.38,-20.2,26.6
2015-01-03 00:17:00,0.0,1.94608,0.00038,405.282,0.026,0.0316,0.0018,140.000,45.000,28566.42210,1.94667,405.436,33.706,45.067,45.000,0.00,0.09,-272.69,-272.74,-10,130,-2,20.1,1.1,-36.9,20.6,3.3,-25.0,5.73,2.38,-20.2,26.6
2015-01-03 00:18:00,0.0,1.94644,0.00035,405.291,0.031,0.0318,0.0019,140.005,45.000,28565.93937,1.94705,405.446,33.693,45.067,45.000,0.00,0.09,-272.68,-272.74,-10,130,-2,20.1,1.1,-37.0,20.6,3.3,-25.0,5.73,2.38,-20.2,26.6
2015-01-03 00:19:00,0.0,1.94598,0.00043,405.316,0.030,0.0309,0.0019,140.000,45.000,28562.71586,1.94660,405.468,33.698,45.067,45.000,0.00,0.09,-272.69,-272.74,-10,130,-2,20.1,1.1,-37.1,20.6,3.3,-25.0,5.73,2.38,-20.2,26.6
2015-01-03 00:20:00,0.0,1.94558,0.00035,405.300,0.028,0.0320,0.0019,140.001,45.000,28565.31548,1.94619,405.454,33.715,45.067,45.000,0.00,0.09,-272.69,-272.74,-10,130,-2,20.1,1.1,-36.7,20.6,3.3,-25.0,5.73,2.41,-20.2,26.6
2015-01-03 00:21:00,0.0,1.94603,0.00038,405.309,0.037,0.0331,0.0021,139.998,45.000,28563.72162,1.94663,405.470,33.704,45.067,45.000,0.00,0.09,-272.68,-272.74,-10,131,-2,20.1,1.1,-36.6,20.6,3.3,-25.0,5.73,2.40,-20.2,26.6
2015-01-03 00:22:00,0.0,1.94608,0.00056,405.340,0.024,0.0320,0.0016,140.002,45.000,28562.89477,1.94673,405.496,33.688,45.067,45.000,0.00,0.09,-272.68,-272.74,-10,130,-2,20.1,1.1,-36.7,20.6,3.3,-25.0,5.73,2.40,-20.2,26.7
2015-01-03 00:23:00,0.0,1.94562,0.00033,405.360,0.028,0.0329,0.0019,140.003,45.000,28566.71657,1.94624,405.519,33.686,45.067,45.000,0.00,0.09,-272.69,-272.74,-10,130,-2,20.1,1.1,-36.6,20.6,3.3,-25.0,5.73,2.38,-20.2,26.6
2015-01-03 00:24:00,0.0,1.94549,0.00036,405.317,0.034,0.0331,0.0016,140.000,45.000,28566.83401,1.94615,405.479,33.672,45.067,45.000,0.00,0.09,-272.68,-272.74,-10,131,-2,20.1,1.2,-36.2,20.6,3.3,-25.0,5.73,2.37,-20.2,26.6
2015-01-03 00:25:00,0.0,1.94571,0.00043,405.329,0.040,0.0333,0.0011,140.001,45.000,28565.30370,1.94633,405.491,33.660,45.067,45.000,0.00,0.09,-272.68,-272.74,-10,130,-2,20.1,1.2,-36.3,20.6,3.3,-25.0,5.73,2.37,-20.2,26.6
2015-01-03 00:26:00,0.0,1.94535,0.00032,405.235,0.027,0.0332,0.0014,140.000,45.000,28562.48551,1.94598,405.398,33.642,45.067,45.000,0.00,0.09,-272.69,-272.75,-10,130,-2,20.1,1.2,-36.3,20.6,3.3,-25.0,5.73,2.36,-20.2,26.6
2015-01-03 00:27:00,0.0,1.94633,0.00072,405.253,0.047,0.0325,0.0020,139.999,45.000,28563.51628,1.94692,405.410,33.633,45.067,45.000,0.00,0.09,-272.68,-272.75,-10,130,-2,20.1,1.1,-36.6,20.6,3.3,-25.0,5.73,2.37,-20.2,26.6
2015-01-03 00:28:00,0.0,1.94622,0.00057,405.275,0.036,0.0308,0.0015,139.998,45.000,28561.91577,1.94683,405.426,33.632,45.068,45.000,0.00,0.09,-272.68,-272.74,-10,130,-2,20.1,1.1,-37.0,20.6,3.3,-25.0,5.73,2.37,-20.2,26.6
2015-01-03 00:29:00,0.0,1.94543,0.00032,405.210,0.030,0.0310,0.0017,140.001,45.000,28560.74124,1.94605,405.362,33.660,45.067,45.000,0.00,0.09,-272.69,-272.75,-10,130,-2,20.1,1.1,-37.0,20.6,3.3,-25.0,5.73,2.37,-20.2,26.6
2015-01-03 00:30:00,0.0,1.94506,0.00057,405.171,0.036,0.0317,0.0019,140.002,45.000,28564.38178,1.94570,405.327,33.674,45.067,45.000,0.00,0.09,-272.69,-272.75,-10,131,-2,20.1,1.1,-37.0,20.6,3.3,-25.0,5.73,2.37,-20.2,26.6
2015-01-03 00:31:00,0.0,1.94468,0.00029,405.132,0.027,0.0317,0.0021,140.000,45.000,28560.05417,1.94529,405.286,33.688,45.067,45.000,0.00,0.09,-272.68,-272.75,-10,130,-2,20.1,1.1,-36.8,20.6,3.3,-25.0,5.73,2.38,-20.2,26.6
2015-01-03 00:32:00,0.0,1.94444,0.00031,405.116,0.032,0.0335,0.0017,139.999,45.000,28562.41297,1.94507,405.281,33.688,45.067,45.000,0.00,0.09,-272.69,-272.74,-10,130,-2,20.2,1.1,-36.5,20.6,3.3,-25.0,5.73,2.38,-20.2,26.6
2015-01-03 00:33:00,0.0,1.94453,0.00050,405.054,0.042,0.0341,0.0021,139.999,45.000,28563.50375,1.94516,405.221,33.689,45.067,45.000,0.00,0.09,-272.69,-272.75,-10,131,-2,20.1,1.2,-36.2,20.6,3.3,-25.0,5.73,2.38,-20.2,26.6
2015-01-03 00:34:00,0.0,1.94449,0.00039,405.049,0.037,0.0336,0.0021,139.998,45.000,28564.25343,1.94516,405.213,33.688,45.067,44.999,0.00,0.09,-272.68,-272.74,-10,130,-2,20.1,1.2,-36.1,20.6,3.3,-25.0,5.73,2.38,-20.2,26.6
2015-01-03 00:35:00,0.0,1.94484,0.00033,405.051,0.029,0.0331,0.0014,140.000,45.000,28563.42794,1.94544,405.211,33.687,45.067,45.000,0.00,0.09,-272.68,-272.74,-10,130,-2,20.1,1.1,-36.4,20.6,3.3,-25.0,5.73,2.40,-20.2,26.6
2015-01-03 00:36:00,0.0,1.94517,0.00050,405.037,0.034,0.0318,0.0020,140.000,45.000,28562.38285,1.94581,405.193,33.686,45.067,45.000,0.00,0.09,-272.69,-272.75,-10,130,-2,20.1,1.1,-36.7,20.6,3.3,-25.0,5.73,2.41,-20.2,26.6
2015-01-03 00:37:00,0.0,1.94515,0.00029,405.040,0.032,0.0315,0.0015,139.999,45.000,28562.28633,1.94574,405.193,33.687,45.067,45.000,0.00,0.09,-272.69,-272.75,-10,131,-2,20.1,1.1,-36.9,20.6,3.3,-25.0,5.73,2.45,-20.2,26.6
2015-01-03 00:38:00,0.0,1.94499,0.00031,405.020,0.038,0.0326,0.0018,140.000,45.000,28564.46214,1.94561,405.180,33.686,45.067,45.000,0.00,0.09,-272.68,-272.74,-10,131,-2,20.1,1.1,-36.8,20.6,3.3,-25.0,5.73,2.44,-20.2,26.6
2015-01-03 00:39:00,0.0,1.94479,0.00030,405.007,0.037,0.0323,0.0021,139.998,45.000,28563.25904,1.94541,405.164,33.691,45.067,45.000,0.00,0.09,-272.68,-272.74,-10,131,-2,20.1,1.1,-36.9,20.6,3.3,-25.0,5.73,2.40,-20.2,26.6
2015-01-03 00:40:00,0.0,1.94494,0.00042,405.009,0.027,0.0322,0.0019,139.998,45.000,28562.04880,1.94557,405.166,33.718,45.067,45.000,0.00,0.09,-272.69,-272.75,-10,130,-2,20.1,1.1,-36.8,20.6,3.3,-25.0,5.73,2.39,-20.3,26.6
2015-01-03 00:41:00,0.0,1.94493,0.00031,405.014,0.041,0.0326,0.0021,140.000,45.000,28564.56323,1.94555,405.171,33.710,45.067,45.000,0.00,0.09,-272.69,-272.74,-10,131,-2,20.1,1.1,-36.7,20.6,3.3,-25.0,5.73,2.40,-20.2,26.6
2015-01-03 00:42:00,0.0,1.94491,0.00037,404.983,0.032,0.0329,0.0024,140.000,45.000,28566.13566,1.94553,405.144,33.689,45.067,45.000,0.00,0.09,-272.68,-272.74,-10,130,-2,20.1,1.1,-36.6,20.6,3.3,-25.0,5.73,2.41,-20.3,26.6
2015-01-03 00:43:00,0.0,1.94484,0.00027,404.994,0.037,0.0314,0.0020,140.001,45.000,28564.16505,1.94542,405.148,33.688,45.067,45.000,0.00,0.09,-272.69,-272.75,-10,131,-2,20.1,1.1,-36.8,20.6,3.3,-25.0,5.73,2.40,-20.3,26.6
2015-01-03 00:44:00,0.0,1.94521,0.00045,405.004,0.033,0.0331,0.0024,140.000,45.000,28564.71391,1.94587,405.164,33.691,45.067,45.000,0.00,0.09,-272.69,-272.74,-10,131,-2,20.1,1.1,-36.8,20.6,3.3,-25.0,5.73,2.40,-20.3,26.6
2015-01-03 00:45:00,0.0,1.94507,0.00037,405.026,0.032,0.0316,0.0023,140.000,45.000,28562.46512,1.94567,405.179,33.713,45.067,45.000,0.00,0.09,-272.68,-272.74,-10,131,-2,20.1,1.1,-36.8,20.6,3.3,-25.0,5.73,2.41,-20.3,26.6
2015-01-03 00:46:00,0.0,1.94532,0.00030,405.013,0.038,0.0328,0.0020,139.998,45.000,28561.35285,1.94592,405.173,33.734,45.067,45.000,0.00,0.09,-272.69,-272.74,-10,130,-2,20.1,1.1,-36.9,20.6,3.3,-25.0,5.73,2.47,-20.3,26.6
2015-01-03 00:47:00,0.0,1.94554,0.00031,405.013,0.031,0.0312,0.0015,140.000,45.000,28559.96697,1.94613,405.165,33.746,45.067,45.000,0.00,0.09,-272.69,-272.74,-10,130,-2,20.1,1.1,-36.9,20.6,3.3,-25.0,5.73,2.46,-20.3,26.6
2015-01-03 00:48:00,0.0,1.94533,0.00030,405.001,0.022,0.0316,0.0027,139.998,45.000,28557.41472,1.94595,405.155,33.750,45.067,45.000,0.00,0.09,-272.68,-272.74,-10,130,-2,20.1,1.1,-37.1,20.6,3.3,-25.0,5.73,2.44,-20.3,26.6
2015-01-03 00:49:00,0.0,1.94530,0.00042,404.983,0.026,0.0309,0.0015,140.001,45.000,28554.14566,1.94589,405.134,33.751,45.067,45.000,0.00,0.09,-272.68,-272.74,-10,129,-2,20.1,1.1,-37.1,20.6,3.3,-25.0,5.73,2.43,-20.3,26.6
2015-01-03 00:50:00,0.0,1.94560,0.00049,405.021,0.036,0.0310,0.0014,139.998,45.000,28554.96746,1.94618,405.170,33.752,45.067,45.000,0.00,0.09,-272.69,-272.74,-10,130,-2,20.1,1.1,-37.1,20.6,3.3,-25.0,5.73,2.42,-20.3,26.6
2015-01-03 00:51:00,0.0,1.94562,0.00058,405.158,0.045,0.0318,0.0016,139.998,45.000,28557.42373,1.94622,405.311,33.750,45.067,45.000,0.00,0.09,-272.69,-272.74,-10,130,-2,20.1,1.1,-37.0,20.6,3.3,-25.1,5.73,2.42,-20.3,26.6
2015-01-03 00:52:00,0.0,1.94783,0.00060,405.493,0.074,0.0317,0.0016,139.999,45.000,28560.41135,1.94836,405.643,33.744,45.067,45.000,0.00,0.09,-272.68,-272.74,-10,130,-2,20.1,1.1,-37.0,20.6,3.3,-25.0,5.73,2.45,-20.3,26.6
2015-01-03 00:53:00,0.0,1.94870,0.00051,405.577,0.030,0.0305,0.0013,139.997,45.000,28560.26944,1.94928,405.727,33.727,45.067,45.000,0.00,0.09,-272.68,-272.75,-10,131,-2,20.1,1.1,-37.3,20.5,3.3,-25.1,5.73,2.47,-20.3,26.6
2015-01-03 00:54:00,0.0,1.94901,0.00049,405.554,0.029,0.0288,0.0015,140.000,45.000,28562.43466,1.94953,405.695,33.715,45.067,45.000,0.00,0.09,-272.69,-272.75,-9,131,-2,20.1,1.0,-37.6,20.6,3.3,-25.0,5.73,2.47,-20.3,26.6
2015-01-03 00:55:00,0.0,1.94893,0.00030,405.579,0.035,0.0292,0.0016,139.999,45.000,28560.57750,1.94951,405.720,33.704,45.067,45.000,0.00,0.09,-272.68,-272.74,-9,131,-2,20.1,1.0,-37.9,20.6,3.3,-25.0,5.73,2.47,-20.3,26.5
2015-01-03 00:56:00,0.0,1.94887,0.00032,405.599,0.027,0.0287,0.0023,139.997,45.000,28561.19296,1.94940,405.739,33.692,45.068,45.000,0.00,0.09,-272.68,-272.74,-10,131,-2,20.1,1.0,-38.0,20.6,3.3,-25.1,5.73,2.44,-20.3,26.6
2015-01-03 00:57:00,0.0,1.94907,0.00037,405.596,0.044,0.0283,0.0019,139.999,45.000,28563.48680,1.94961,405.734,33.690,45.068,45.000,0.00,0.09,-272.69,-272.75,-10,131,-2,20.1,1.0,-38.1,20.5,3.3,-25.1,5.73,2.41,-20.3,26.5
2015-01-03 00:58:00,0.0,1.94897,0.00037,405.582,0.027,0.0278,0.0013,139.999,45.000,28568.04257,1.94952,405.718,33.691,45.068,45.000,0.00,0.09,-272.67,-272.74,-10,131,-2,20.1,0.9,-38.3,20.6,3.3,-25.0,5.73,2.49,-20.3,26.6
2015-01-03 00:59:00,0.0,1.94918,0.00040,405.593,0.029,0.0277,0.0017,140.001,45.000,28567.48570,1.94969,405.728,33.694,45.068,45.000,0.00,0.09,-272.68,-272.74,-10,132,-2,20.1,0.9,-38.4,20.5,3.3,-25.1,5.73,2.43,-20.3,26.5
2015-01-03 01:00:00,0.0,1.94854,0.00039,405.596,0.034,0.0276,0.0013,139.996,45.000,28564.05956,1.94908,405.730,33.688,45.067,45.000,0.00,0.09,-272.69,-272.74,-10,131,-2,20.0,0.9,-38.4,20.5,3.3,-25.0,5.73,2.41,-20.3,26.5
2015-01-03 01:01:00,0.0,1.94839,0.00032,405.582,0.030,0.0280,0.0019,140.001,45.000,28565.20895,1.94894,405.719,33.669,45.067,45.000,0.00,0.09,-272.69,-272.74,-10,131,-2,20.1,1.0,-38.1,20.5,3.3,-25.1,5.73,2.37,-20.3,26.6
2015-01-03 01:02:00,0.0,1.94831,0.00042,405.589,0.038,0.0284,0.0014,139.996,45.000,28565.66191,1.94884,405.727,33.656,45.067,45.000,0.00,0.09,-272.68,-272.74,-10,131,-2,20.1,1.0,-38.1,20.5,3.3,-25.1,5.73,2.36,-20.3,26.6
2015-01-03 01:03:00,0.0,1.94823,0.00039,405.571,0.049,0.0285,0.0022,139.997,45.000,28564.20372,1.94880,405.711,33.648,45.067,45.000,0.00,0.09,-272.69,-272.74,-10,131,-2,20.1,1.0,-37.9,20.5,3.3,-25.1,5.73,2.39,-20.3,26.5
2015-01-03 01:04:00,0.0,1.94790,0.00036,405.532,0.043,0.0291,0.0015,139.999,45.000,28566.05703,1.94847,405.675,33.634,45.067,45.000,0.00,0.09,-272.68,-272.74,-10,131,-2,20.1,1.0,-37.9,20.6,3.3,-25.0,5.73,2.39,-20.3,26.5
2015-01-03 01:05:00,0.0,1.94786,0.00035,405.484,0.030,0.0291,0.0013,140.003,45.000,28566.50413,1.94842,405.625,33.627,45.067,45.000,0.00,0.09,-272.68,-272.73,-9,132,-2,20.1,1.0,-37.9,20.5,3.3,-25.0,5.73,2.38,-20.3,26.5
2015-01-03 01:06:00,0.0,1.94683,0.00080,405.349,0.115,0.0290,0.0016,139.998,45.000,28565.72428,1.94742,405.494,33.625,45.067,45.000,0.00,0.09,-272.68,-272.74,-9,132,-2,20.1,1.0,-37.8,20.5,3.3,-25.1,5.73,2.38,-20.3,26.5
2015-01-03 01:07:00,0.0,1.94654,0.00039,405.290,0.033,0.0301,0.0018,140.000,45.000,28567.64574,1.94712,405.435,33.625,45.067,45.000,0.00,0.09,-272.69,-272.75,-9,132,-2,20.1,1.0,-37.4,20.5,3.3,-25.1,5.73,2.38,-20.3,26.5
2015-01-03 01:08:00,0.0,1.94646,0.00035,405.238,0.041,0.0300,0.0023,139.997,45.000,28566.11010,1.94706,405.384,33.626,45.067,45.000,0.00,0.09,-272.68,-272.73,-9,132,-2,20.1,1.0,-37.4,20.6,3.3,-25.0,5.73,2.38,-20.3,26.5
2015-01-03 01:09:00,0.0,1.94677,0.00037,405.232,0.036,0.0301,0.0020,140.000,45.000,28568.41417,1.94731,405.380,33.626,45.067,45.000,0.00,0.09,-272.68,-272.74,-10,132,-2,20.1,1.0,-37.4,20.5,3.3,-25.1,5.73,2.37,-20.3,26.5
2015-01-03 01:10:00,0.0,1.94786,0.00052,405.208,0.024,0.0302,0.0018,139.999,45.000,28567.44525,1.94840,405.354,33.623,45.067,45.000,0.00,0.09,-272.69,-272.75,-10,132,-2,20.1,1.0,-37.7,20.5,3.3,-25.1,5.73,2.38,-20.3,26.5
2015-01-03 01:11:00,0.0,1.94771,0.00038,405.218,0.041,0.0281,0.0018,139.999,45.000,28568.07473,1.94827,405.354,33.616,45.067,45.000,0.00,0.09,-272.68,-272.75,-10,132,-2,20.1,1.0,-37.9,20.5,3.3,-25.2,5.73,2.39,-20.3,26.5
2015-01-03 01:12:00,0.0,1.94780,0.00057,405.406,0.044,0.0276,0.0016,139.999,45.000,28566.95633,1.94835,405.539,33.608,45.067,45.000,0.00,0.09,-272.68,-272.74,-10,132,-2,20.1,1.0,-38.1,20.5,3.3,-25.2,5.73,2.39,-20.3,26.5
2015-01-03 01:13:00,0.0,1.94745,0.00042,405.374,0.018,0.0282,0.0016,140.001,45.000,28566.07476,1.94796,405.512,33.597,45.067,45.000,0.00,0.09,-272.69,-272.75,-10,131,-2,20.1,1.0,-38.2,20.5,3.3,-25.1,5.73,2.39,-20.3,26.5
2015-01-03 01:14:00,0.0,1.94808,0.00040,405.405,0.033,0.0269,0.0018,139.997,45.000,28564.86753,1.94859,405.536,33.595,45.067,45.000,0.00,0.09,-272.69,-272.74,-10,131,-2,20.1,0.9,-38.4,20.5,3.3,-25.1,5.73,2.38,-20.3,26.5
2015-01-03 01:15:00,0.0,1.94722,0.00045,405.363,0.034,0.0272,0.0021,139.999,45.000,28567.75656,1.94776,405.496,33.595,45.067,45.000,0.00,0.09,-272.68,-272.74,-10,131,-2,20.1,0.9,-38.4,20.5,3.3,-25.1,5.73,2.39,-20.3,26.5
2015-01-03 01:16:00,0.0,1.94668,0.00034,405.326,0.021,0.0274,0.0015,139.999,45.000,28568.52468,1.94719,405.459,33.601,45.068,45.000,0.00,0.09,-272.68,-272.74,-9,132,-2,20.1,0.9,-38.5,20.5,3.3,-25.2,5.73,2.39,-20.3,26.5
2015-01-03 01:17:00,0.0,1.94653,0.00033,405.288,0.030,0.0280,0.0020,139.998,45.000,28566.30430,1.94710,405.425,33.597,45.067,45.000,0.00,0.09,-272.69,-272.75,-9,131,-2,20.1,1.0,-38.2,20.5,3.3,-25.2,5.73,2.39,-20.3,26.5
2015-01-03 01:18:00,0.0,1.94624,0.00030,405.257,0.025,0.0292,0.0029,139.999,45.000,28565.56185,1.94680,405.399,33.586,45.067,45.000,0.00,0.09,-272.68,-272.74,-9,132,-2,20.1,1.0,-38.2,20.5,3.3,-25.1,5.73,2.39,-20.3,26.5
2015-01-03 01:19:00,0.0,1.94624,0.00043,405.285,0.037,0.0283,0.0016,139.996,45.000,28564.92686,1.94680,405.422,33.589,45.067,45.000,0.00,0.09,-272.68,-272.74,-9,132,-2,20.1,1.0,-38.2,20.5,3.3,-25.2,5.73,2.39,-20.3,26.5
2015-01-03 01:20:00,0.0,1.94601,0.00029,405.267,0.032,0.0276,0.0014,139.997,45.000,28565.66079,1.94654,405.403,33.575,45.067,45.000,0.00,0.09,-272.69,-272.75,-9,131,-2,20.1,1.0,-38.2,20.5,3.3,-25.2,5.73,2.39,-20.3,26.5
2015-01-03 01:21:00,0.0,1.94609,0.00032,405.262,0.040,0.0281,0.0017,139.998,45.000,28564.98655,1.94662,405.398,33.574,45.067,45.000,0.00,0.09,-272.69,-272.75,-10,132,-2,20.1,1.0,-38.2,20.5,3.3,-25.2,5.73,2.39,-20.3,26.5
2015-01-03 01:22:00,0.0,1.94572,0.00031,405.241,0.038,0.0281,0.0015,140.001,45.000,28566.72558,1.94626,405.379,33.575,45.067,45.000,0.00,0.09,-272.68,-272.74,-10,132,-2,20.1,1.0,-38.0,20.5,3.3,-25.1,5.73,2.40,-20.3,26.5
2015-01-03 01:23:00,0.0,1.94593,0.00028,405.225,0.021,0.0288,0.0015,140.001,45.000,28567.34417,1.94647,405.364,33.607,45.067,45.000,0.00,0.09,-272.69,-272.75,-10,132,-2,20.0,1.0,-37.9,20.5,3.3,-25.2,5.73,2.39,-20.3,26.5
2015-01-03 01:24:00,0.0,1.94568,0.00045,405.225,0.030,0.0299,0.0019,140.000,45.000,28568.56130,1.94627,405.371,33.613,45.067,45.000,0.00,0.09,-272.69,-272.75,-10,132,-2,20.1,1.0,-37.6,20.5,3.3,-25.2,5.73,2.39,-20.3,26.5
2015-01-03 01:25:00,0.0,1.94565,0.00030,405.236,0.030,0.0287,0.0015,140.001,45.000,28571.74029,1.94620,405.376,33.610,45.067,45.000,0.00,0.09,-272.68,-272.74,-10,133,-2,20.1,1.0,-37.6,20.5,3.3,-25.1,5.73,2.39,-20.3,26.5
2015-01-03 01:26:00,0.0,1.94540,0.00040,405.221,0.028,0.0289,0.0017,139.998,45.000,28571.07083,1.94596,405.362,33.579,45.067,45.000,0.00,0.09,-272.69,-272.74,-10,132,-2,20.1,1.0,-37.9,20.5,3.3,-25.1,5.73,2.39,-20.3,26.5
2015-01-03 01:27:00,0.0,1.94552,0.00054,405.189,0.037,0.0295,0.0017,139.998,45.000,28572.53681,1.94609,405.332,33.570,45.067,45.000,0.00,0.09,-272.69,-272.75,-10,133,-2,20.1,1.0,-37.9,20.5,3.3,-25.1,5.73,2.39,-20.3,26.4
2015-01-03 01:28:00,0.0,1.94536,0.00031,405.123,0.041,0.0286,0.0013,139.999,45.000,28574.56946,1.94590,405.263,33.568,45.067,45.000,0.00,0.09,-272.68,-272.75,-9,132,-2,20.1,1.0,-37.9,20.5,3.3,-25.1,5.73,2.38,-20.3,26.4
2015-01-03 01:29:00,0.0,1.94518,0.00038,405.070,0.027,0.0285,0.0015,139.999,45.000,28575.86478,1.94572,405.210,33.563,45.067,45.000,0.00,0.09,-272.69,-272.74,-9,133,-2,20.1,1.0,-37.9,20.5,3.3,-25.2,5.73,2.38,-20.3,26.5
2015-01-03 01:30:00,0.0,1.94524,0.00038,405.030,0.046,0.0290,0.0020,140.001,45.000,28573.46153,1.94581,405.171,33.563,45.067,45.000,0.00,0.09,-272.69,-272.75,-9,132,-2,20.1,1.0,-37.6,20.5,3.3,-25.1,5.73,2.38,-20.3,26.5
2015-01-03 01:31:00,0.0,1.94536,0.00038,405.075,0.035,0.0295,0.0015,139.998,45.000,28573.13690,1.94591,405.218,33.562,45.067,45.000,0.00,0.09,-272.69,-272.74,-9,133,-2,20.1,1.0,-37.5,20.5,3.3,-25.2,5.73,2.42,-20.3,26.5
2015-01-03 01:32:00,0.0,1.94530,0.00039,405.118,0.046,0.0294,0.0013,140.000,45.000,28574.20661,1.94587,405.259,33.561,45.067,45.000,0.00,0.09,-272.68,-272.74,-9,133,-2,20.1,1.0,-37.3,20.5,3.3,-25.1,5.73,2.44,-20.3,26.5
2015-01-03 01:33:00,0.0,1.94557,0.00039,405.207,0.044,0.0300,0.0020,140.001,45.000,28579.33774,1.94613,405.352,33.558,45.067,45.000,0.00,0.09,-272.69,-272.74,-9,133,-2,20.1,1.0,-37.4,20.5,3.3,-25.2,5.73,2.41,-20.3,26.5
2015-01-03 01:34:00,0.0,1.94534,0.00041,405.170,0.083,0.0304,0.0015,139.997,45.000,28575.44203,1.94594,405.322,33.563,45.067,45.000,0.00,0.09,-272.69,-272.75,-10,133,-2,20.0,1.0,-37.4,20.5,3.3,-25.2,5.73,2.40,-20.3,26.5
2015-01-03 01:35:00,0.0,1.94472,0.00029,404.997,0.047,0.0294,0.0018,139.998,45.000,28576.55168,1.94530,405.141,33.562,45.067,45.000,0.00,0.09,-272.68,-272.74,-10,133,-2,20.0,1.0,-37.5,20.5,3.3,-25.1,5.73,2.40,-20.3,26.5
2015-01-03 01:36:00,0.0,1.94503,0.00043,405.046,0.039,0.0297,0.0016,139.998,45.000,28576.34246,1.94559,405.190,33.562,45.067,45.000,0.00,0.09,-272.68,-272.74,-10,133,-2,20.1,1.0,-37.6,20.5,3.3,-25.2,5.73,2.40,-20.3,26.5
2015-01-03 01:37:00,0.0,1.94548,0.00042,405.098,0.054,0.0291,0.0019,140.001,45.000,28575.56430,1.94603,405.237,33.560,45.067,45.000,0.00,0.09,-272.69,-272.75,-10,132,-2,20.1,1.0,-37.9,20.5,3.3,-25.2,5.73,2.40,-20.3,26.5
2015-01-03 01:38:00,0.0,1.94595,0.00032,405.239,0.038,0.0293,0.0015,139.998,45.000,28575.25811,1.94650,405.381,33.563,45.067,45.000,0.00,0.09,-272.69,-272.74,-10,133,-2,20.0,1.0,-37.7,20.5,3.3,-25.1,5.73,2.40,-20.3,26.5
2015-01-03 01:39:00,0.0,1.94575,0.00044,405.151,0.076,0.0294,0.0017,139.998,45.000,28577.32097,1.94634,405.298,33.558,45.067,45.000,0.00,0.09,-272.69,-272.74,-10,133,-2,20.0,1.0,-37.8,20.5,3.3,-25.2,5.73,2.40,-20.3,26.4
2015-01-03 01:40:00,0.0,1.94527,0.00052,404.995,0.070,0.0286,0.0026,140.000,45.000,28575.89470,1.94579,405.132,33.563,45.067,45.000,0.00,0.09,-272.69,-272.75,-10,133,-2,20.0,1.0,-38.0,20.5,3.3,-25.2,5.73,2.40,-20.3,26.5
2015-01-03 01:41:00,0.0,1.94574,0.00031,405.086,0.022,0.0289,0.0016,140.001,45.000,28577.28727,1.94628,405.226,33.563,45.067,45.000,0.00,0.09,-272.69,-272.74,-9,133,-2,20.1,1.0,-38.1,20.5,3.3,-25.1,5.73,2.40,-20.3,26.4
2015-01-03 01:42:00,0.0,1.94619,0.00044,405.207,0.091,0.0278,0.0015,139.997,45.000,28579.48115,1.94672,405.339,33.555,45.067,45.000,0.00,0.09,-272.68,-272.74,-9,134,-2,20.0,1.0,-38.2,20.5,3.3,-25.2,5.73,2.40,-20.3,26.5
2015-01-03 01:43:00,0.0,1.94667,0.00043,405.252,0.072,0.0278,0.0018,139.999,45.000,28580.88193,1.94722,405.388,33.556,45.067,45.000,0.00,0.09,-272.68,-272.74,-9,133,-2,20.0,1.0,-38.2,20.5,3.3,-25.2,5.73,2.41,-20.3,26.5
2015-01-03 01:44:00,0.0,1.94795,0.00126,405.196,0.055,0.0281,0.0018,140.000,45.000,28580.72404,1.94842,405.334,33.561,45.067,45.000,0.00,0.09,-272.69,-272.74,-9,134,-2,20.0,1.0,-38.3,20.5,3.3,-25.2,5.73,2.42,-20.3,26.5
2015-01-03 01:45:00,0.0,1.94754,0.00036,405.274,0.034,0.0273,0.0020,139.998,45.000,28578.24531,1.94808,405.406,33.561,45.067,45.000,0.00,0.09,-272.68,-272.74,-9,133,-2,20.0,0.9,-38.4,20.5,3.3,-25.2,5.73,2.42,-20.3,26.5